Location: Palmerston North
(40.3500°S, 175.6170°E)
Time: 19:59:23
(UTC+12:00)

ARGOS - Pass Details

Date: 24 January 2019
Orbit: 819 x 835 km, 98.5° (Epoch: 22 April)

Event Time Altitude Azimuth Distance (km) Brightness Sun altitude
Rises 21:31:45 0° 152° (SSE) 3,388 6.4 -8.8°
Reaches altitude 10° 21:34:42 10° 136° (SE) 2,445 5.5 -9.2°
Maximum altitude 21:38:46 21° 87° (E) 1,770 4.4 -9.9°
Enters shadow 21:42:01 13° 45° (NE) 2,218 4.7 -10.4°
